Time,TemperatureF,DewpointF,PressureIn,WindDirection,WindDirectionDegrees,WindSpeedMPH,WindSpeedGustMPH,Humidity,HourlyPrecipIn,Conditions,Clouds,dailyrainin,SoftwareType,DateUTC
2013-06-11 00:02:00,51.0,40.0,29.62,West,261,0.0,5.0,66,0.00,,,0.00,,2013-06-11 08:02:00,
2013-06-11 00:12:00,51.0,40.0,29.62,West,261,0.0,5.0,67,0.00,,,0.00,,2013-06-11 08:12:00,
2013-06-11 00:21:00,51.0,40.0,29.62,West,261,0.0,5.0,67,0.00,,,0.00,,2013-06-11 08:21:00,
2013-06-11 00:32:00,50.0,40.0,29.62,West,261,0.0,5.0,68,0.00,,,0.00,,2013-06-11 08:32:00,
2013-06-11 00:42:00,50.0,41.0,29.62,West,261,0.0,0.0,70,0.00,,,0.00,,2013-06-11 08:42:00,
2013-06-11 00:52:00,50.0,41.0,29.62,West,261,0.0,0.0,70,0.00,,,0.00,,2013-06-11 08:52:00,
2013-06-11 01:02:00,50.0,41.0,29.63,West,261,0.0,0.0,70,0.00,,,0.00,,2013-06-11 09:02:00,
2013-06-11 01:12:00,50.0,41.0,29.63,West,261,0.0,0.0,70,0.00,,,0.00,,2013-06-11 09:12:00,
2013-06-11 01:21:00,49.0,40.0,29.63,West,261,0.0,0.0,71,0.00,,,0.00,,2013-06-11 09:21:00,
2013-06-11 01:33:00,48.0,39.0,29.63,West,261,0.0,0.0,71,0.00,,,0.00,,2013-06-11 09:33:00,
2013-06-11 01:43:00,48.0,40.0,29.63,West,261,0.0,0.0,73,0.00,,,0.00,,2013-06-11 09:43:00,
2013-06-11 01:53:00,48.0,40.0,29.63,West,261,0.0,0.0,73,0.00,,,0.00,,2013-06-11 09:53:00,
2013-06-11 02:03:00,47.0,39.0,29.64,West,261,0.0,0.0,74,0.00,,,0.00,,2013-06-11 10:03:00,
2013-06-11 02:12:00,47.0,39.0,29.64,West,261,0.0,0.0,73,0.00,,,0.00,,2013-06-11 10:12:00,
2013-06-11 02:22:00,47.0,39.0,29.64,West,261,0.0,0.0,73,0.00,,,0.00,,2013-06-11 10:22:00,
2013-06-11 02:33:00,47.0,39.0,29.64,West,261,0.0,0.0,74,0.00,,,0.00,,2013-06-11 10:33:00,
2013-06-11 02:42:00,47.0,39.0,29.64,West,261,0.0,0.0,74,0.00,,,0.00,,2013-06-11 10:42:00,
2013-06-11 02:52:00,47.0,39.0,29.64,West,261,0.0,0.0,74,0.00,,,0.00,,2013-06-11 10:52:00,
2013-06-11 03:02:00,46.0,39.0,29.64,West,261,0.0,0.0,75,0.00,,,0.00,,2013-06-11 11:02:00,
2013-06-11 03:12:00,46.0,39.0,29.64,West,261,0.0,0.0,76,0.00,,,0.00,,2013-06-11 11:12:00,
2013-06-11 03:21:00,46.0,39.0,29.64,West,261,0.0,0.0,76,0.00,,,0.00,,2013-06-11 11:21:00,
2013-06-11 03:32:00,45.0,38.0,29.64,West,261,0.0,0.0,77,0.00,,,0.00,,2013-06-11 11:32:00,
2013-06-11 03:41:00,45.0,39.0,29.63,West,261,0.0,0.0,78,0.00,,,0.00,,2013-06-11 11:41:00,
2013-06-11 03:52:00,45.0,39.0,29.63,West,261,0.0,0.0,78,0.00,,,0.00,,2013-06-11 11:52:00,
2013-06-11 04:02:00,44.0,38.0,29.64,West,261,0.0,0.0,79,0.00,,,0.00,,2013-06-11 12:02:00,
2013-06-11 04:12:00,44.0,38.0,29.64,West,261,0.0,0.0,79,0.00,,,0.00,,2013-06-11 12:12:00,
2013-06-11 04:21:00,44.0,38.0,29.64,West,261,0.0,0.0,79,0.00,,,0.00,,2013-06-11 12:21:00,
2013-06-11 04:32:00,44.0,39.0,29.64,West,261,0.0,0.0,81,0.00,,,0.00,,2013-06-11 12:32:00,
2013-06-11 04:42:00,43.0,38.0,29.64,West,261,0.0,0.0,81,0.00,,,0.00,,2013-06-11 12:42:00,
2013-06-11 04:52:00,43.0,38.0,29.64,West,261,0.0,0.0,81,0.00,,,0.00,,2013-06-11 12:52:00,
2013-06-11 05:02:00,43.0,38.0,29.64,West,261,0.0,0.0,82,0.00,,,0.00,,2013-06-11 13:02:00,
2013-06-11 05:12:00,43.0,38.0,29.64,West,261,0.0,0.0,82,0.00,,,0.00,,2013-06-11 13:12:00,
2013-06-11 05:22:00,43.0,38.0,29.64,West,261,0.0,0.0,82,0.00,,,0.00,,2013-06-11 13:22:00,
2013-06-11 05:32:00,43.0,38.0,29.64,West,261,0.0,0.0,82,0.00,,,0.00,,2013-06-11 13:32:00,
2013-06-11 05:42:00,43.0,38.0,29.63,West,261,0.0,0.0,83,0.00,,,0.00,,2013-06-11 13:42:00,
2013-06-11 05:52:00,43.0,38.0,29.63,West,261,0.0,0.0,83,0.00,,,0.00,,2013-06-11 13:52:00,
2013-06-11 06:02:00,42.0,38.0,29.64,West,261,0.0,0.0,84,0.00,,,0.00,,2013-06-11 14:02:00,
2013-06-11 06:12:00,42.0,38.0,29.64,West,261,0.0,0.0,84,0.00,,,0.00,,2013-06-11 14:12:00,
2013-06-11 06:21:00,42.0,38.0,29.64,West,261,0.0,0.0,84,0.00,,,0.00,,2013-06-11 14:21:00,
2013-06-11 06:32:00,42.0,38.0,29.64,West,261,0.0,0.0,84,0.00,,,0.00,,2013-06-11 14:32:00,
2013-06-11 06:42:00,43.0,38.0,29.64,West,261,0.0,0.0,84,0.00,,,0.00,,2013-06-11 14:42:00,
2013-06-11 06:52:00,43.0,38.0,29.64,West,261,0.0,0.0,84,0.00,,,0.00,,2013-06-11 14:52:00,
2013-06-11 07:02:00,43.0,38.0,29.65,West,261,0.0,0.0,84,0.00,,,0.00,,2013-06-11 15:02:00,
2013-06-11 07:12:00,43.0,38.0,29.65,West,261,0.0,0.0,84,0.00,,,0.00,,2013-06-11 15:12:00,
2013-06-11 07:21:00,43.0,38.0,29.65,West,261,0.0,0.0,84,0.00,,,0.00,,2013-06-11 15:21:00,
2013-06-11 07:32:00,44.0,39.0,29.64,West,261,0.0,0.0,83,0.00,,,0.00,,2013-06-11 15:32:00,
2013-06-11 07:42:00,44.0,39.0,29.63,West,261,0.0,0.0,83,0.00,,,0.00,,2013-06-11 15:42:00,
2013-06-11 07:53:00,44.0,39.0,29.63,West,261,0.0,0.0,83,0.00,,,0.00,,2013-06-11 15:53:00,
2013-06-11 08:02:00,45.0,40.0,29.64,West,261,0.0,0.0,82,0.00,,,0.00,,2013-06-11 16:02:00,
2013-06-11 08:12:00,45.0,40.0,29.64,West,261,0.0,0.0,82,0.00,,,0.00,,2013-06-11 16:12:00,
2013-06-11 08:22:00,45.0,39.0,29.63,West,261,0.0,0.0,80,0.00,,,0.00,,2013-06-11 16:22:00,
2013-06-11 08:32:00,46.0,40.0,29.63,West,261,0.0,0.0,80,0.00,,,0.00,,2013-06-11 16:32:00,
2013-06-11 08:42:00,47.0,41.0,29.63,West,261,0.0,0.0,79,0.00,,,0.00,,2013-06-11 16:42:00,
2013-06-11 08:52:00,47.0,41.0,29.63,West,261,0.0,0.0,79,0.00,,,0.00,,2013-06-11 16:52:00,
2013-06-11 09:02:00,47.0,40.0,29.63,West,261,0.0,0.0,77,0.00,,,0.00,,2013-06-11 17:02:00,
2013-06-11 09:12:00,47.0,40.0,29.63,West,261,0.0,0.0,77,0.00,,,0.00,,2013-06-11 17:12:00,
2013-06-11 09:22:00,48.0,41.0,29.63,West,261,0.0,0.0,76,0.00,,,0.00,,2013-06-11 17:22:00,
2013-06-11 09:32:00,50.0,42.0,29.63,West,261,0.0,0.0,75,0.00,,,0.00,,2013-06-11 17:32:00,
2013-06-11 09:42:00,52.0,43.0,29.62,West,261,0.0,0.0,70,0.00,,,0.00,,2013-06-11 17:42:00,
2013-06-11 09:52:00,52.0,43.0,29.62,West,261,0.0,0.0,70,0.00,,,0.00,,2013-06-11 17:52:00,
2013-06-11 10:02:00,55.0,44.0,29.62,West,261,0.0,0.0,66,0.00,,,0.00,,2013-06-11 18:02:00,
2013-06-11 10:12:00,56.0,44.0,29.62,West,261,0.0,0.0,64,0.00,,,0.00,,2013-06-11 18:12:00,
2013-06-11 10:22:00,56.0,44.0,29.62,West,261,0.0,0.0,64,0.00,,,0.00,,2013-06-11 18:22:00,
2013-06-11 10:32:00,56.0,44.0,29.62,West,261,0.0,0.0,64,0.00,,,0.00,,2013-06-11 18:32:00,
2013-06-11 10:42:00,57.0,44.0,29.62,West,261,0.0,0.0,62,0.00,,,0.00,,2013-06-11 18:42:00,
2013-06-11 10:52:00,57.0,44.0,29.62,West,261,0.0,0.0,62,0.00,,,0.00,,2013-06-11 18:52:00,
2013-06-11 11:02:00,57.0,44.0,29.61,SSE,165,0.0,0.0,61,0.00,,,0.00,,2013-06-11 19:02:00,
2013-06-11 11:12:00,57.0,44.0,29.61,SSE,165,0.0,0.0,61,0.00,,,0.00,,2013-06-11 19:12:00,
2013-06-11 11:21:00,57.0,43.0,29.60,WSW,255,0.0,0.0,59,0.00,,,0.00,,2013-06-11 19:21:00,
2013-06-11 11:32:00,57.0,43.0,29.60,SW,215,0.0,0.0,60,0.00,,,0.00,,2013-06-11 19:32:00,
2013-06-11 11:42:00,58.0,43.0,29.60,SW,215,0.0,0.0,58,0.00,,,0.00,,2013-06-11 19:42:00,
2013-06-11 11:52:00,58.0,43.0,29.60,SW,215,0.0,0.0,58,0.00,,,0.00,,2013-06-11 19:52:00,
2013-06-11 12:02:00,58.0,43.0,29.59,SW,215,0.0,0.0,57,0.00,,,0.00,,2013-06-11 20:02:00,
2013-06-11 12:12:00,58.0,43.0,29.59,SW,215,0.0,0.0,57,0.00,,,0.00,,2013-06-11 20:12:00,
2013-06-11 12:21:00,58.0,43.0,29.59,SW,215,0.0,0.0,58,0.00,,,0.00,,2013-06-11 20:21:00,
2013-06-11 12:32:00,59.0,42.0,29.59,West,263,0.0,0.0,54,0.00,,,0.00,,2013-06-11 20:32:00,
2013-06-11 12:42:00,59.0,42.0,29.59,West,263,0.0,0.0,54,0.00,,,0.00,,2013-06-11 20:42:00,
2013-06-11 12:52:00,60.0,42.0,29.58,South,184,0.0,0.0,51,0.00,,,0.00,,2013-06-11 20:52:00,
2013-06-11 13:02:00,60.0,42.0,29.58,South,184,0.0,0.0,52,0.00,,,0.00,,2013-06-11 21:02:00,
2013-06-11 13:12:00,60.0,42.0,29.58,South,184,0.0,0.0,52,0.00,,,0.00,,2013-06-11 21:12:00,
2013-06-11 13:22:00,61.0,42.0,29.57,SSW,195,0.0,0.0,49,0.00,,,0.00,,2013-06-11 21:22:00,
2013-06-11 13:32:00,63.0,42.0,29.57,South,187,0.0,0.0,47,0.00,,,0.00,,2013-06-11 21:32:00,
2013-06-11 13:42:00,63.0,41.0,29.57,West,268,0.0,0.0,45,0.00,,,0.00,,2013-06-11 21:42:00,
2013-06-11 13:52:00,63.0,41.0,29.57,West,268,0.0,0.0,45,0.00,,,0.00,,2013-06-11 21:52:00,
2013-06-11 14:03:00,62.0,42.0,29.57,NW,307,0.0,0.0,47,0.00,,,0.00,,2013-06-11 22:03:00,
2013-06-11 14:12:00,62.0,42.0,29.57,NW,307,0.0,0.0,47,0.00,,,0.00,,2013-06-11 22:12:00,
2013-06-11 14:22:00,61.0,45.0,29.57,NW,307,0.0,0.0,55,0.00,,,0.00,,2013-06-11 22:22:00,
2013-06-11 14:32:00,59.0,46.0,29.57,NW,307,0.0,0.0,62,0.00,,,0.00,,2013-06-11 22:32:00,
2013-06-11 14:42:00,59.0,46.0,29.57,NW,307,0.0,0.0,62,0.00,,,0.00,,2013-06-11 22:42:00,
2013-06-11 14:52:00,57.0,44.0,29.57,NW,307,0.0,0.0,62,0.00,,,0.00,,2013-06-11 22:52:00,
2013-06-11 15:02:00,57.0,47.0,29.57,NW,307,0.0,0.0,70,0.00,,,0.00,,2013-06-11 23:02:00,
2013-06-11 15:12:00,56.0,46.0,29.56,NW,307,0.0,0.0,70,0.00,,,0.00,,2013-06-11 23:12:00,
2013-06-11 15:22:00,56.0,46.0,29.56,NW,307,0.0,0.0,70,0.00,,,0.00,,2013-06-11 23:22:00,
2013-06-11 15:32:00,56.0,46.0,29.56,NW,307,0.0,0.0,70,0.00,,,0.00,,2013-06-11 23:32:00,
2013-06-11 15:42:00,58.0,44.0,29.55,WSW,249,0.0,0.0,59,0.00,,,0.00,,2013-06-11 23:42:00,
2013-06-11 15:52:00,58.0,44.0,29.55,WSW,249,0.0,0.0,59,0.00,,,0.00,,2013-06-11 23:52:00,
2013-06-11 16:02:00,59.0,43.0,29.54,West,265,0.0,0.0,56,0.00,,,0.00,,2013-06-12 00:02:00,
2013-06-11 16:12:00,61.0,44.0,29.54,West,265,0.0,0.0,53,0.00,,,0.00,,2013-06-12 00:12:00,
2013-06-11 16:22:00,61.0,44.0,29.54,West,265,0.0,0.0,53,0.00,,,0.00,,2013-06-12 00:22:00,
2013-06-11 16:32:00,62.0,42.0,29.53,North,8,0.0,0.0,48,0.00,,,0.00,,2013-06-12 00:32:00,
2013-06-11 16:42:00,62.0,42.0,29.53,North,8,0.0,0.0,48,0.00,,,0.00,,2013-06-12 00:42:00,
2013-06-11 16:52:00,62.0,40.0,29.53,WNW,288,0.0,0.0,44,0.00,,,0.00,,2013-06-12 00:52:00,
2013-06-11 17:02:00,63.0,43.0,29.53,West,272,0.0,0.0,48,0.00,,,0.00,,2013-06-12 01:02:00,
2013-06-11 17:12:00,61.0,42.0,29.53,WNW,298,0.0,0.0,50,0.00,,,0.00,,2013-06-12 01:12:00,
2013-06-11 17:21:00,61.0,42.0,29.53,WNW,298,0.0,0.0,50,0.00,,,0.00,,2013-06-12 01:21:00,
2013-06-11 17:32:00,61.0,42.0,29.53,WNW,298,0.0,0.0,50,0.00,,,0.00,,2013-06-12 01:32:00,
2013-06-11 17:42:00,61.0,42.0,29.53,WNW,298,0.0,0.0,50,0.00,,,0.00,,2013-06-12 01:42:00,
2013-06-11 17:52:00,59.0,41.0,29.53,SE,144,0.0,0.0,52,0.00,,,0.00,,2013-06-12 01:52:00,
2013-06-11 18:02:00,60.0,39.0,29.52,West,263,0.0,0.0,46,0.00,,,0.00,,2013-06-12 02:02:00,
2013-06-11 18:12:00,61.0,38.0,29.52,WSW,237,0.0,0.0,43,0.00,,,0.00,,2013-06-12 02:12:00,
2013-06-11 18:22:00,61.0,38.0,29.52,WSW,237,0.0,0.0,43,0.00,,,0.00,,2013-06-12 02:22:00,
2013-06-11 18:32:00,62.0,39.0,29.52,WSW,237,0.0,0.0,42,0.00,,,0.00,,2013-06-12 02:32:00,
2013-06-11 18:42:00,62.0,40.0,29.52,WSW,253,0.0,0.0,45,0.00,,,0.00,,2013-06-12 02:42:00,
2013-06-11 18:52:00,62.0,40.0,29.52,WSW,253,0.0,0.0,45,0.00,,,0.00,,2013-06-12 02:52:00,
2013-06-11 19:01:00,62.0,42.0,29.52,West,268,0.0,0.0,48,0.00,,,0.00,,2013-06-12 03:01:00,
2013-06-11 19:12:00,62.0,43.0,29.52,SW,219,0.0,0.0,50,0.00,,,0.00,,2013-06-12 03:12:00,
2013-06-11 19:21:00,62.0,43.0,29.52,SW,219,0.0,0.0,50,0.00,,,0.00,,2013-06-12 03:21:00,
2013-06-11 19:32:00,61.0,41.0,29.51,SW,219,0.0,0.0,48,0.00,,,0.00,,2013-06-12 03:32:00,
2013-06-11 19:42:00,61.0,41.0,29.50,SW,219,0.0,0.0,47,0.00,,,0.00,,2013-06-12 03:42:00,
2013-06-11 19:53:00,61.0,41.0,29.50,SW,219,0.0,0.0,47,0.00,,,0.00,,2013-06-12 03:53:00,
2013-06-11 20:02:00,61.0,38.0,29.50,WSW,244,0.0,0.0,43,0.00,,,0.00,,2013-06-12 04:02:00,
2013-06-11 20:12:00,61.0,38.0,29.50,WSW,244,0.0,0.0,43,0.00,,,0.00,,2013-06-12 04:12:00,
2013-06-11 20:22:00,62.0,39.0,29.50,WSW,244,0.0,0.0,43,0.00,,,0.00,,2013-06-12 04:22:00,
2013-06-11 20:33:00,62.0,40.0,29.49,SW,232,0.0,0.0,45,0.00,,,0.00,,2013-06-12 04:33:00,
2013-06-11 20:42:00,62.0,40.0,29.49,North,352,0.0,0.0,45,0.00,,,0.00,,2013-06-12 04:42:00,
2013-06-11 20:52:00,62.0,40.0,29.49,North,352,0.0,0.0,45,0.00,,,0.00,,2013-06-12 04:52:00,
2013-06-11 21:02:00,62.0,41.0,29.49,North,352,0.0,0.0,46,0.00,,,0.00,,2013-06-12 05:02:00,
2013-06-11 21:12:00,62.0,42.0,29.50,North,352,0.0,0.0,48,0.00,,,0.00,,2013-06-12 05:12:00,
2013-06-11 21:22:00,62.0,42.0,29.50,North,352,0.0,0.0,48,0.00,,,0.00,,2013-06-12 05:22:00,
2013-06-11 21:32:00,61.0,42.0,29.49,North,352,0.0,0.0,49,0.00,,,0.00,,2013-06-12 05:32:00,
2013-06-11 21:42:00,60.0,41.0,29.49,North,352,0.0,0.0,49,0.00,,,0.00,,2013-06-12 05:42:00,
2013-06-11 21:52:00,60.0,41.0,29.49,North,352,0.0,0.0,49,0.00,,,0.00,,2013-06-12 05:52:00,
2013-06-11 22:02:00,59.0,40.0,29.49,North,352,0.0,0.0,50,0.00,,,0.00,,2013-06-12 06:02:00,
2013-06-11 22:12:00,59.0,41.0,29.49,North,352,0.0,0.0,51,0.00,,,0.00,,2013-06-12 06:12:00,
2013-06-11 22:21:00,59.0,41.0,29.49,North,352,0.0,0.0,51,0.00,,,0.00,,2013-06-12 06:21:00,
2013-06-11 22:32:00,59.0,41.0,29.49,North,352,0.0,0.0,51,0.00,,,0.00,,2013-06-12 06:32:00,
2013-06-11 22:42:00,58.0,41.0,29.49,North,352,0.0,0.0,54,0.00,,,0.00,,2013-06-12 06:42:00,
2013-06-11 22:52:00,58.0,41.0,29.49,North,352,0.0,0.0,54,0.00,,,0.00,,2013-06-12 06:52:00,
2013-06-11 23:02:00,58.0,41.0,29.50,North,352,0.0,0.0,54,0.00,,,0.00,,2013-06-12 07:02:00,
2013-06-11 23:12:00,58.0,41.0,29.49,North,352,0.0,0.0,54,0.00,,,0.00,,2013-06-12 07:12:00,
2013-06-11 23:22:00,58.0,41.0,29.50,North,352,0.0,0.0,53,0.00,,,0.00,,2013-06-12 07:22:00,
2013-06-11 23:33:00,58.0,41.0,29.50,North,352,0.0,0.0,53,0.00,,,0.00,,2013-06-12 07:33:00,
2013-06-11 23:43:00,58.0,41.0,29.50,North,352,0.0,0.0,54,0.00,,,0.00,,2013-06-12 07:43:00,
2013-06-11 23:53:00,58.0,41.0,29.50,North,352,0.0,0.0,54,0.00,,,0.00,,2013-06-12 07:53:00,